Weather History for KSKA - August, 2013

Change the Weather History Date:

Sunday, August 25, 2013

  Actual Average Record
Temperature  
Mean Temperature 68 °F -  
Max Temperature 80 °F 78 °F 91 °F (1996)
Min Temperature 57 °F 53 °F 44 °F (2005)
Cooling Degree Days 4    
Growing Degree Days 18 (Base 50)    
Moisture  
Dew Point 53 °F    
Average Humidity 64    
Maximum Humidity 94    
Minimum Humidity 34    
Precipitation  
Precipitation 0.31 in - - ()
Sea Level Pressure  
Sea Level Pressure 29.89 in    
Wind  
Wind Speed 9 mph (SSW)    
Max Wind Speed 50 mph    
Max Gust Speed 61 mph    
Visibility 8 miles    
Events Rain , Thunderstorm    
Averages and records for this station are not official NWS values.
T = Trace of Precipitation, MM = Missing Value Source: NWS Daily Summary

Daily Weather History Graph

Daily Weather History Graph

Search for Another Location

Airport or City:

Trip Planner

Search our weather history database for the weather conditions in past years. The results will help you decide how hot, cold, wet, or windy it might be!

Date:

Astronomy

Aug. 25, 2013 Rise Set
Actual Time 6:00 AM PDT 7:43 PM PDT
Civil Twilight 5:27 AM PDT 8:16 PM PDT
Nautical Twilight 4:47 AM PDT 8:56 PM PDT
Astronomical Twilight 4:03 AM PDT 9:39 PM PDT
Moon 9:50 PM PDT (8/25) 11:33 AM PDT (8/25)
Length of Visible Light 14h 48m
Length of Day
13h 43m
Waning Gibbous, 75% of the Moon is Illuminated
Aug 25
Waning Gibbous
Aug 28
Last Quarter
Sep 5
New
Sep 12
First Quarter
Sep 19
Full

Hourly Weather History & Observations

Time (PDT) Temp. Dew Point Humidity Pressure Visibility Wind Dir Wind Speed Gust Speed Precip Events Conditions
12:58 AM 63.5 °F 43.7 °F 48% 29.83 in 10.0 mi SSE 2.3 mph - N/A   Overcast
1:58 AM 64.8 °F 43.3 °F 46% 29.86 in 10.0 mi South 3.5 mph - N/A   Overcast
2:29 AM 64.4 °F 42.8 °F 45% 29.90 in 10.0 mi Calm Calm - N/A Rain Light Rain
2:58 AM 60.8 °F 52.7 °F 75% 29.86 in 10.0 mi ENE 8.1 mph - 0.02 in Rain Light Rain
3:00 AM 60.8 °F 51.8 °F 72% 29.88 in 10.0 mi ENE 8.1 mph - N/A   Overcast
3:58 AM 60.8 °F 50.4 °F 68% 29.88 in 10.0 mi SSE 3.5 mph - 0.00 in   Overcast
4:58 AM 59.0 °F 50.0 °F 72% 29.89 in 10.0 mi South 5.8 mph - N/A   Overcast
5:24 AM 59.0 °F 50.0 °F 72% 29.95 in 10.0 mi South 6.9 mph - N/A Rain Light Rain
5:32 AM 59.0 °F 50.0 °F 72% 29.93 in 8.0 mi SSE 3.5 mph - N/A Rain Heavy Rain
5:42 AM 59.0 °F 51.8 °F 77% 29.93 in 9.0 mi ESE 3.5 mph - N/A Rain Light Rain
5:51 AM 57.2 °F 51.8 °F 82% 29.92 in 10.0 mi East 5.8 mph - N/A   Overcast
5:58 AM 57.6 °F 52.2 °F 82% 29.90 in 10.0 mi East 6.9 mph - 0.02 in   Overcast
6:06 AM 57.2 °F 51.8 °F 82% 29.95 in 10.0 mi ESE 3.5 mph - N/A Rain Light Rain
6:37 AM 57.2 °F 53.6 °F 88% 29.93 in 10.0 mi ENE 4.6 mph - N/A   Mostly Cloudy
6:51 AM 57.2 °F 53.6 °F 88% 29.93 in 10.0 mi East 3.5 mph - N/A Rain Light Rain
6:58 AM 57.0 °F 54.0 °F 89% 29.91 in 10.0 mi East 4.6 mph - 0.02 in Rain Light Rain
7:02 AM 57.2 °F 53.6 °F 88% 29.94 in 10.0 mi East 4.6 mph - N/A   Overcast
7:58 AM 59.9 °F 54.5 °F 82% 29.93 in 10.0 mi East 5.8 mph - 0.00 in   Overcast
8:04 AM 59.0 °F 55.4 °F 88% 29.96 in 10.0 mi ESE 4.6 mph - N/A Rain Light Rain
8:19 AM 59.0 °F 55.4 °F 88% 29.95 in 10.0 mi Variable 3.5 mph - N/A   Overcast
8:58 AM 61.5 °F 54.3 °F 77% 29.93 in 10.0 mi East 2.3 mph - 0.00 in   Mostly Cloudy
9:58 AM 64.8 °F 54.7 °F 70% 29.94 in 10.0 mi ENE 4.6 mph - N/A   Scattered Clouds
10:58 AM 69.6 °F 53.4 °F 56% 29.92 in 10.0 mi North 1.2 mph - N/A   Mostly Cloudy
11:58 AM 72.1 °F 54.0 °F 53% 29.91 in 10.0 mi Variable 2.3 mph - N/A   Scattered Clouds
12:58 PM 76.1 °F 52.7 °F 44% 29.89 in 10.0 mi Variable 3.5 mph - N/A   Clear
1:20 PM 77.0 °F 51.8 °F 41% 29.91 in 10.0 mi Variable 2.3 mph - N/A Rain Light Rain
1:29 PM 77.0 °F 51.8 °F 41% 29.91 in 10.0 mi Variable 4.6 mph - N/A   Clear
1:35 PM 77.0 °F 51.8 °F 41% 29.91 in 10.0 mi Variable 4.6 mph - N/A Rain Light Rain
1:45 PM 77.0 °F 51.8 °F 41% 29.91 in 10.0 mi Variable 2.3 mph - N/A   Clear
1:58 PM 77.5 °F 51.4 °F 40% 29.88 in 10.0 mi NNW 4.6 mph - 0.00 in   Clear
2:03 PM 77.0 °F 50.0 °F 39% 29.91 in 10.0 mi Variable 2.3 mph - N/A   Light Drizzle
2:20 PM 78.8 °F 51.8 °F 39% 29.90 in 10.0 mi Variable 3.5 mph - N/A   Clear
2:29 PM 78.8 °F 50.0 °F 36% 29.90 in 10.0 mi NNE 4.6 mph - N/A   Light Drizzle
2:39 PM 78.8 °F 50.0 °F 36% 29.90 in 10.0 mi Calm Calm - N/A   Clear
2:57 PM 78.8 °F 50.0 °F 36% 29.89 in 10.0 mi Variable 6.9 mph - N/A Rain Light Rain
2:58 PM 78.8 °F 50.9 °F 38% 29.86 in 10.0 mi Variable 5.8 mph - 0.00 in Rain Light Rain
3:45 PM 80.6 °F 50.0 °F 34% 29.87 in 10.0 mi SW 4.6 mph - N/A   Clear
3:58 PM 80.6 °F 50.9 °F 35% 29.83 in 10.0 mi WSW 3.5 mph - 0.00 in   Clear
4:09 PM 78.8 °F 50.0 °F 36% 29.85 in 10.0 mi Variable 1.2 mph - N/A   Light Drizzle
4:16 PM 80.6 °F 51.8 °F 37% 29.85 in 10.0 mi Variable 3.5 mph - N/A   Clear
4:54 PM 80.6 °F 51.8 °F 37% 29.84 in 10.0 mi Variable 3.5 mph - N/A Rain Light Rain
4:55 PM 78.8 °F 51.8 °F 39% 29.84 in 10.0 mi Variable 2.3 mph - N/A   Clear
4:57 PM 78.8 °F 51.8 °F 39% 29.84 in 10.0 mi Variable 3.5 mph - N/A Rain Light Rain
4:58 PM 79.7 °F 50.9 °F 37% 29.81 in 10.0 mi Variable 4.6 mph - 0.00 in Rain Light Rain
5:04 PM 78.8 °F 51.8 °F 39% 29.84 in 10.0 mi NNE 6.9 mph - N/A   Clear
5:58 PM 79.0 °F 50.4 °F 37% 29.81 in 10.0 mi North 5.8 mph - 0.00 in   Clear
6:58 PM 76.3 °F 52.5 °F 43% 29.80 in 10.0 mi North 6.9 mph - N/A   Clear
7:22 PM 75.2 °F 55.4 °F 50% 29.81 in 10.0 mi NNW 8.1 mph - N/A   Light Drizzle
7:31 PM 73.4 °F 53.6 °F 50% 29.81 in 10.0 mi North 8.1 mph - N/A   Partly Cloudy
7:58 PM 73.9 °F 52.9 °F 48% 29.77 in 10.0 mi North 6.9 mph - 0.00 in   Partly Cloudy
8:16 PM 73.4 °F 53.6 °F 50% 29.82 in 10.0 mi NNW 2.3 mph - N/A Thunderstorm Scattered Clouds
8:22 PM 71.6 °F 53.6 °F 53% 29.86 in 10.0 mi South 42.6 mph 27.6 mph N/A Thunderstorm Squalls
8:23 PM 71.6 °F 53.6 °F 53% 29.86 in 8.0 mi SSW 47.2 mph - N/A Thunderstorm Squalls
8:24 PM 69.8 °F 55.4 °F 60% 29.87 in 6.0 mi SSW 49.5 mph 61.0 mph N/A Thunderstorm Haze
8:26 PM 68.0 °F 57.2 °F 68% 29.89 in 2.5 mi SW 48.3 mph 61.0 mph N/A Thunderstorm Haze
8:27 PM 68.0 °F 59.0 °F 73% 29.90 in 2.0 mi SW 46.0 mph 61.0 mph N/A Thunderstorm Haze
8:28 PM 66.2 °F 59.0 °F 78% 29.89 in 1.8 mi SW 47.2 mph 61.0 mph N/A Thunderstorm Haze
8:29 PM 64.4 °F 59.0 °F 83% 29.89 in 1.8 mi SW 49.5 mph 61.0 mph N/A Thunderstorm Haze
8:30 PM 62.6 °F 59.0 °F 88% 29.87 in 1.5 mi SW 42.6 mph 61.0 mph N/A Thunderstorm Haze
8:32 PM 60.8 °F 57.2 °F 88% 29.89 in 1.2 mi SW 38.0 mph 61.0 mph N/A Thunderstorm Haze
8:33 PM 60.8 °F 57.2 °F 88% 29.88 in 1.2 mi SW 38.0 mph 59.8 mph N/A Thunderstorm Overcast
8:35 PM 59.0 °F 57.2 °F 94% 29.88 in 1.5 mi SW 39.1 mph 59.8 mph N/A Thunderstorm Overcast
8:36 PM 59.0 °F 57.2 °F 94% 29.88 in 1.5 mi SW 33.4 mph 59.8 mph N/A Thunderstorm Overcast
8:37 PM 59.0 °F 55.4 °F 88% 29.88 in 1.8 mi WSW 28.8 mph 59.8 mph N/A Thunderstorm Overcast
8:38 PM 59.0 °F 55.4 °F 88% 29.89 in 2.0 mi WSW 35.7 mph 58.7 mph N/A Thunderstorm Overcast
8:39 PM 59.0 °F 55.4 °F 88% 29.89 in 2.5 mi WSW 41.4 mph 58.7 mph N/A Thunderstorm Overcast
8:41 PM 59.0 °F 55.4 °F 88% 29.89 in 3.0 mi WSW 33.4 mph 50.6 mph N/A Thunderstorm Mostly Cloudy
8:44 PM 59.0 °F 55.4 °F 88% 29.90 in 5.0 mi WSW 31.1 mph 50.6 mph N/A Thunderstorm Mostly Cloudy
8:47 PM 59.0 °F 55.4 °F 88% 29.90 in 9.0 mi WSW 31.1 mph 47.2 mph N/A Thunderstorm Thunderstorm
8:56 PM 59.0 °F 55.4 °F 88% 29.91 in 10.0 mi WSW 16.1 mph 36.8 mph N/A Thunderstorm Mostly Cloudy
8:58 PM 59.0 °F 55.4 °F 88% 29.90 in 10.0 mi WSW 16.1 mph 36.8 mph 0.25 in Thunderstorm Mostly Cloudy
9:15 PM 59.0 °F 53.6 °F 82% 29.90 in 10.0 mi WSW 21.9 mph 27.6 mph N/A   Scattered Clouds
9:58 PM 58.5 °F 54.7 °F 87% 29.88 in 10.0 mi West 8.1 mph - N/A   Scattered Clouds
10:58 PM 57.6 °F 53.6 °F 87% 29.90 in 10.0 mi East 6.9 mph - N/A   Partly Cloudy
11:58 PM 57.4 °F 54.7 °F 91% 29.90 in 10.0 mi ESE 6.9 mph - N/A   Overcast